CCM11SC LFLL-LFKB

Flight info

Callsign CCM11SC
Flight time 0h 52m
Altitude 35000
Route ROMAM8N ROMAM T43 BEPER DCT RETNO DCT KOLON DCT NARTI UP991 NIRDO NIRDO1V
Aircraft A320/M-SDFGIJ1RWY/S

Departure

Time 2026-04-25 10:38
Airport Lyon Saint-Exupéry Airport (LFLL)

Arrival

Time 2026-04-25 11:31
Airport Bastia-Poretta International airport (LFKB)
Time Latitude Longitude Altitude Speed Heading
2026-04-25 10:01 45.71943 5.08086 797 ft 0 kts 285°
2026-04-25 10:30 45.71937 5.08116 796 ft 4 kts 285°
2026-04-25 10:30 45.71930 5.08153 796 ft 4 kts 283°
2026-04-25 10:31 45.71927 5.08190 797 ft 4 kts 258°
2026-04-25 10:31 45.71938 5.08219 797 ft 4 kts 203°
2026-04-25 10:31 45.71943 5.08222 797 ft 0 kts 195°
2026-04-25 10:33 45.71926 5.08216 797 ft 5 kts 195°
2026-04-25 10:34 45.71899 5.08205 797 ft 3 kts 195°
2026-04-25 10:34 45.71881 5.08198 797 ft 2 kts 195°
2026-04-25 10:34 45.71870 5.08193 797 ft 1 kts 195°
2026-04-25 10:34 45.71852 5.08186 797 ft 7 kts 196°
2026-04-25 10:35 45.71808 5.08167 797 ft 6 kts 198°
2026-04-25 10:35 45.71771 5.08139 797 ft 7 kts 209°
2026-04-25 10:35 45.71723 5.08118 798 ft 8 kts 175°
2026-04-25 10:35 45.71691 5.08166 800 ft 7 kts 110°
2026-04-25 10:36 45.71674 5.08284 801 ft 19 kts 89°
2026-04-25 10:36 45.71681 5.08472 802 ft 16 kts 116°
2026-04-25 10:36 45.71601 5.08533 803 ft 12 kts 118°
2026-04-25 10:36 45.71601 5.08644 806 ft 12 kts 84°
2026-04-25 10:37 45.71609 5.08764 809 ft 13 kts 85°
2026-04-25 10:37 45.71616 5.08882 812 ft 12 kts 86°
2026-04-25 10:37 45.71666 5.08953 813 ft 8 kts 347°
2026-04-25 10:37 45.71743 5.08943 814 ft 42 kts 355°
2026-04-25 10:38 45.72288 5.08879 801 ft 112 kts 356°
2026-04-25 10:38 45.73252 5.08764 795 ft 163 kts 355°
2026-04-25 10:38 45.74344 5.08604 1508 ft 152 kts 355°
2026-04-25 10:38 45.75412 5.08472 2094 ft 158 kts 356°
2026-04-25 10:39 45.76584 5.08338 2480 ft 181 kts 355°
2026-04-25 10:39 45.77923 5.08183 2850 ft 205 kts 355°
2026-04-25 10:39 45.79429 5.08008 3224 ft 229 kts 355°
2026-04-25 10:39 45.81061 5.07816 3809 ft 241 kts 355°
2026-04-25 10:40 45.82726 5.08048 4486 ft 245 kts 23°
2026-04-25 10:40 45.84009 5.09647 5349 ft 252 kts 60°
2026-04-25 10:40 45.84388 5.12093 6182 ft 259 kts 96°
2026-04-25 10:40 45.83683 5.14452 7011 ft 264 kts 133°
2026-04-25 10:41 45.82164 5.15917 7800 ft 267 kts 159°
2026-04-25 10:41 45.80378 5.16710 8637 ft 271 kts 167°
2026-04-25 10:41 45.78546 5.17321 9432 ft 275 kts 167°
2026-04-25 10:41 45.76665 5.17986 10225 ft 280 kts 166°
2026-04-25 10:42 45.74776 5.18767 10957 ft 285 kts 163°
2026-04-25 10:42 45.72883 5.19644 11688 ft 288 kts 165°
2026-04-25 10:42 45.70900 5.20158 12376 ft 296 kts 177°
2026-04-25 10:42 45.68762 5.20114 12604 ft 318 kts 184°
2026-04-25 10:43 45.66464 5.19958 12802 ft 342 kts 184°
2026-04-25 10:43 45.64032 5.19787 13246 ft 355 kts 184°
2026-04-25 10:43 45.61544 5.19616 13926 ft 360 kts 184°
2026-04-25 10:43 45.59025 5.19449 14570 ft 364 kts 184°
2026-04-25 10:44 45.56475 5.19282 15220 ft 368 kts 184°
2026-04-25 10:44 45.53903 5.19115 15856 ft 372 kts 184°
2026-04-25 10:44 45.51304 5.18951 16489 ft 376 kts 184°
2026-04-25 10:44 45.48673 5.18786 17117 ft 380 kts 185°
2026-04-25 10:45 45.46020 5.18619 17734 ft 384 kts 185°
2026-04-25 10:45 45.43373 5.18450 18379 ft 386 kts 185°
2026-04-25 10:45 45.40677 5.18277 18927 ft 389 kts 185°
2026-04-25 10:45 45.37960 5.18102 19480 ft 392 kts 185°
2026-04-25 10:46 45.35217 5.17924 20035 ft 395 kts 185°
2026-04-25 10:46 45.32456 5.17748 20581 ft 398 kts 185°
2026-04-25 10:46 45.29673 5.17570 21134 ft 401 kts 185°
2026-04-25 10:46 45.26874 5.17390 21683 ft 404 kts 185°
2026-04-25 10:47 45.24057 5.17208 22229 ft 407 kts 185°
2026-04-25 10:47 45.21217 5.17027 22771 ft 410 kts 185°
2026-04-25 10:47 45.18351 5.16848 23309 ft 413 kts 185°
2026-04-25 10:47 45.15461 5.16671 23810 ft 416 kts 185°
2026-04-25 10:48 45.12556 5.16491 24242 ft 418 kts 185°
2026-04-25 10:48 45.09678 5.16418 24683 ft 422 kts 179°
2026-04-25 10:48 45.06742 5.16736 25102 ft 424 kts 177°
2026-04-25 10:48 45.03797 5.17071 25555 ft 425 kts 177°
2026-04-25 10:49 45.00861 5.17682 25980 ft 429 kts 165°
2026-04-25 10:49 44.98962 5.18682 26248 ft 432 kts 156°
2026-04-25 10:49 44.95654 5.21813 26770 ft 437 kts 135°
2026-04-25 10:49 44.93719 5.25095 27141 ft 440 kts 127°
2026-04-25 10:50 44.91852 5.28571 27529 ft 442 kts 127°
2026-04-25 10:50 44.90001 5.32043 27919 ft 444 kts 127°
2026-04-25 10:50 44.88151 5.35520 28294 ft 446 kts 127°
2026-04-25 10:50 44.86274 5.39044 28597 ft 449 kts 127°
2026-04-25 10:51 44.84398 5.42565 28982 ft 450 kts 127°
2026-04-25 10:51 44.82513 5.46094 29348 ft 451 kts 127°
2026-04-25 10:51 44.80619 5.49632 29691 ft 453 kts 128°
2026-04-25 10:51 44.78712 5.53179 30036 ft 455 kts 128°
2026-04-25 10:52 44.76797 5.56734 30334 ft 457 kts 128°
2026-04-25 10:52 44.74873 5.60301 30612 ft 458 kts 128°
2026-04-25 10:52 44.72941 5.63879 30879 ft 460 kts 128°
2026-04-25 10:52 44.71002 5.67468 31156 ft 462 kts 128°
2026-04-25 10:53 44.69058 5.71065 31416 ft 463 kts 128°
2026-04-25 10:53 44.67107 5.74675 31729 ft 463 kts 128°
2026-04-25 10:53 44.65164 5.78269 32103 ft 461 kts 128°
2026-04-25 10:53 44.63226 5.81845 32474 ft 459 kts 128°
2026-04-25 10:54 44.61293 5.85402 32833 ft 458 kts 128°
2026-04-25 10:54 44.60013 5.87756 33080 ft 457 kts 128°
2026-04-25 10:54 44.57462 5.92439 33578 ft 455 kts 128°
2026-04-25 10:54 44.55521 5.95999 33967 ft 453 kts 128°
2026-04-25 10:55 44.53630 5.99462 34288 ft 452 kts 129°
2026-04-25 10:55 44.51723 6.02952 34572 ft 451 kts 129°
2026-04-25 10:55 44.49814 6.06439 34854 ft 451 kts 129°
2026-04-25 10:55 44.47904 6.09925 35029 ft 451 kts 129°
2026-04-25 10:56 44.46009 6.13382 35069 ft 445 kts 129°
2026-04-25 10:56 44.42256 6.20210 35071 ft 441 kts 129°
2026-04-25 10:57 44.38517 6.26993 35075 ft 440 kts 129°
2026-04-25 10:57 44.34778 6.33761 35073 ft 439 kts 129°
2026-04-25 10:58 44.31040 6.40512 35071 ft 439 kts 129°
2026-04-25 10:58 44.27292 6.47261 35077 ft 440 kts 129°
2026-04-25 10:59 44.23543 6.54002 35079 ft 439 kts 129°
2026-04-25 10:59 44.19797 6.60735 35071 ft 439 kts 129°
2026-04-25 11:00 44.16048 6.67453 35073 ft 439 kts 129°
2026-04-25 11:00 44.12317 6.74099 35076 ft 439 kts 129°
2026-04-25 11:01 44.08560 6.80786 35072 ft 438 kts 129°
2026-04-25 11:01 44.04812 6.87470 35078 ft 439 kts 129°
2026-04-25 11:02 44.01050 6.94160 35073 ft 439 kts 129°
2026-04-25 11:02 43.97283 7.00820 35083 ft 438 kts 129°
2026-04-25 11:03 43.93513 7.07460 35094 ft 438 kts 129°
2026-04-25 11:03 43.90381 7.12980 35106 ft 438 kts 129°
2026-04-25 11:04 43.86599 7.19614 35111 ft 438 kts 129°
2026-04-25 11:04 43.82818 7.26244 35115 ft 438 kts 129°
2026-04-25 11:05 43.79048 7.32860 35110 ft 438 kts 129°
2026-04-25 11:05 43.75263 7.39460 35112 ft 437 kts 129°
2026-04-25 11:06 43.71500 7.46001 35109 ft 437 kts 129°
2026-04-25 11:06 43.67716 7.52589 35106 ft 437 kts 129°
2026-04-25 11:07 43.63931 7.59160 35114 ft 437 kts 129°
2026-04-25 11:07 43.60135 7.65714 35110 ft 437 kts 129°
2026-04-25 11:08 43.56344 7.72242 35116 ft 436 kts 129°
2026-04-25 11:08 43.52557 7.78789 35090 ft 438 kts 129°
2026-04-25 11:09 43.48746 7.85366 35076 ft 440 kts 129°
2026-04-25 11:09 43.44900 7.91970 35081 ft 442 kts 129°
2026-04-25 11:10 43.41065 7.98526 35093 ft 443 kts 129°
2026-04-25 11:10 43.39754 8.00765 34823 ft 445 kts 129°
2026-04-25 11:10 43.37179 8.05163 33616 ft 447 kts 129°
2026-04-25 11:10 43.35239 8.08469 32601 ft 441 kts 129°
2026-04-25 11:11 43.33316 8.11739 31604 ft 436 kts 129°
2026-04-25 11:11 43.31422 8.14950 30727 ft 429 kts 129°
2026-04-25 11:11 43.29558 8.18110 29798 ft 424 kts 128°
2026-04-25 11:11 43.27715 8.21234 28816 ft 418 kts 129°
2026-04-25 11:12 43.25902 8.24302 27870 ft 412 kts 129°
2026-04-25 11:12 43.24108 8.27333 26956 ft 406 kts 129°
2026-04-25 11:12 43.22343 8.30317 26291 ft 396 kts 129°
2026-04-25 11:12 43.20643 8.33190 25858 ft 381 kts 129°
2026-04-25 11:13 43.19002 8.35959 25401 ft 368 kts 130°
2026-04-25 11:13 43.17412 8.38639 24959 ft 355 kts 130°
2026-04-25 11:13 43.15914 8.41262 24509 ft 344 kts 124°
2026-04-25 11:13 43.14773 8.44101 24084 ft 340 kts 114°
2026-04-25 11:14 43.14032 8.47237 23602 ft 355 kts 103°
2026-04-25 11:14 43.13569 8.50592 23071 ft 360 kts 102°
2026-04-25 11:14 43.13104 8.53965 22587 ft 360 kts 101°
2026-04-25 11:14 43.12643 8.57280 22107 ft 359 kts 102°
2026-04-25 11:15 43.12176 8.60632 21621 ft 358 kts 102°
2026-04-25 11:15 43.11708 8.63983 21139 ft 358 kts 102°
2026-04-25 11:15 43.11238 8.67326 20659 ft 358 kts 102°
2026-04-25 11:15 43.10764 8.70674 20174 ft 358 kts 102°
2026-04-25 11:16 43.09814 8.77364 19207 ft 358 kts 103°
2026-04-25 11:16 43.09339 8.80701 18726 ft 359 kts 103°
2026-04-25 11:16 43.08862 8.84061 18211 ft 359 kts 103°
2026-04-25 11:17 43.08387 8.87398 17856 ft 354 kts 103°
2026-04-25 11:17 43.07917 8.90704 17308 ft 354 kts 103°
2026-04-25 11:17 43.07462 8.93911 16774 ft 344 kts 103°
2026-04-25 11:17 43.07013 8.97064 16314 ft 333 kts 103°
2026-04-25 11:18 43.06567 9.00171 15865 ft 333 kts 102°
2026-04-25 11:18 43.06116 9.03281 15416 ft 334 kts 102°
2026-04-25 11:18 43.05663 9.06397 14966 ft 335 kts 103°
2026-04-25 11:18 43.05112 9.09486 14513 ft 334 kts 109°
2026-04-25 11:19 43.04386 9.12508 14051 ft 335 kts 109°
2026-04-25 11:19 43.03660 9.15523 13550 ft 329 kts 109°
2026-04-25 11:19 43.02952 9.18463 13114 ft 324 kts 109°
2026-04-25 11:19 43.02248 9.21385 12662 ft 324 kts 109°
2026-04-25 11:20 43.01546 9.24304 12219 ft 322 kts 108°
2026-04-25 11:20 43.00855 9.27165 11788 ft 315 kts 109°
2026-04-25 11:20 43.00167 9.30006 11355 ft 315 kts 109°
2026-04-25 11:20 42.99478 9.32850 10924 ft 315 kts 109°
2026-04-25 11:21 42.98788 9.35694 10498 ft 316 kts 109°
2026-04-25 11:21 42.98096 9.38549 10062 ft 316 kts 109°
2026-04-25 11:21 42.97415 9.41358 9890 ft 307 kts 109°
2026-04-25 11:21 42.96748 9.44106 9548 ft 303 kts 109°
2026-04-25 11:22 42.96086 9.46828 9168 ft 302 kts 109°
2026-04-25 11:22 42.95650 9.48621 8932 ft 299 kts 109°
2026-04-25 11:22 42.94777 9.52206 8417 ft 296 kts 109°
2026-04-25 11:22 42.94134 9.54836 8237 ft 286 kts 109°
2026-04-25 11:23 42.93443 9.57274 8109 ft 273 kts 123°
2026-04-25 11:23 42.92118 9.59023 7857 ft 256 kts 156°
2026-04-25 11:23 42.90458 9.59500 7342 ft 246 kts 188°
2026-04-25 11:23 42.88805 9.58986 6812 ft 243 kts 198°
2026-04-25 11:24 42.87177 9.58373 6436 ft 243 kts 198°
2026-04-25 11:24 42.85549 9.57765 6075 ft 242 kts 197°
2026-04-25 11:24 42.83991 9.56965 5742 ft 237 kts 209°
2026-04-25 11:24 42.82529 9.55961 5428 ft 234 kts 208°
2026-04-25 11:25 42.81081 9.54980 5143 ft 231 kts 207°
2026-04-25 11:25 42.79648 9.54019 4847 ft 227 kts 207°
2026-04-25 11:25 42.78237 9.53076 4541 ft 225 kts 207°
2026-04-25 11:25 42.76835 9.52139 4252 ft 223 kts 207°
2026-04-25 11:26 42.75448 9.51213 3966 ft 221 kts 207°
2026-04-25 11:26 42.74073 9.50293 3680 ft 219 kts 207°
2026-04-25 11:26 42.72710 9.49379 3397 ft 216 kts 207°
2026-04-25 11:26 42.71402 9.48502 3115 ft 204 kts 207°
2026-04-25 11:27 42.70175 9.47682 2888 ft 189 kts 207°
2026-04-25 11:27 42.69035 9.46920 2619 ft 175 kts 206°
2026-04-25 11:27 42.67933 9.46546 2410 ft 156 kts 182°
2026-04-25 11:27 42.67233 9.46592 2263 ft 149 kts 178°
2026-04-25 11:28 42.65890 9.46687 1993 ft 142 kts 177°
2026-04-25 11:28 42.64908 9.46754 1796 ft 140 kts 177°
2026-04-25 11:28 42.63941 9.46821 1600 ft 139 kts 177°
2026-04-25 11:28 42.62991 9.46887 1423 ft 139 kts 176°
2026-04-25 11:29 42.62037 9.46952 1216 ft 135 kts 176°
2026-04-25 11:29 42.61094 9.47019 1034 ft 134 kts 176°
2026-04-25 11:29 42.60184 9.47083 851 ft 132 kts 175°
2026-04-25 11:29 42.59261 9.47149 666 ft 132 kts 175°
2026-04-25 11:30 42.58336 9.47221 489 ft 133 kts 172°
2026-04-25 11:30 42.57429 9.47444 325 ft 132 kts 162°
2026-04-25 11:30 42.56558 9.47825 126 ft 131 kts 160°
2026-04-25 11:30 42.55719 9.48193 31 ft 116 kts 161°
2026-04-25 11:31 42.55098 9.48450 35 ft 58 kts 163°
2026-04-25 11:31 42.54989 9.48449 36 ft 9 kts 263°
2026-04-25 11:31 42.54972 9.48363 35 ft 11 kts 253°
2026-04-25 11:31 42.54950 9.48266 34 ft 10 kts 246°
2026-04-25 11:32 42.54897 9.48252 35 ft 8 kts 163°
2026-04-25 11:32 42.54842 9.48273 34 ft 9 kts 160°
2026-04-25 11:32 42.54816 9.48242 35 ft 5 kts 280°
2026-04-25 11:32 42.54826 9.48202 35 ft 4 kts 279°
2026-04-25 11:33 42.54830 9.48174 35 ft 0 kts 282°